Location: Cedar Ridge
(38.0658°N, 120.2769°W)
Time: 22:50:11
(UTC+00:00)

Cosmos 1850 Rocket - Pass Details

Date: 10 September 2024
Orbit: 751 x 783 km, 74.0° (Epoch: 12 October)

Event Time Altitude Azimuth Distance (km) Brightness Sun altitude
Rises 12:41:00 0° 191° (S) 3,210 7.0 -12.0°
Reaches altitude 10° 12:43:21 10° 190° (S) 2,293 6.2 -11.6°
Maximum altitude 12:48:32 73° 106° (ESE) 806 4.3 -10.6°
Drops below altitude 10° 12:53:49 10° 22° (NNE) 2,330 7.0 -9.6°
Sets 12:56:13 0° 21° (NNE) 3,265 7.8 -9.2°
